STARLINK-30056 (57622 NORAD) Tracking and Keplerian Element Data

This shows tracking and keplerian element data for the satellite.

Feedback or suggestion? Click here.




ElementValue
Catalog57622
NameSTARLINK-30056
Epoch Orbit2476
Epoch Day13.17589679
Epoch Year2024
RAAN35.2956
Inclination43.0037
Eccentricity9.95E-05
Argument of Perigee252.1129
Mean Anonmoly107.9605
Mean Motion15.01742364
Decay Rate0.00015354
L11 57622U 23119W 24013.17589679 .00015354 00000+0 11735-2 0 9996
L22 57622 43.0037 35.2956 0000995 252.1129 107.9605 15.01742364 24766



Live tracking and technical data element details for STARLINK-30056 (NORAD 57622). STARLINK-30056 can be tracked NOW for your location showing map with azimuth and elevation plus other details from your city location.







IsCatalogInMostPopularTable: catalog: 57622, numindb: 21
Update: records affected: 1



GetName: 57622 STARLINK-30056

Hit Count: updated at: Thu, 22 Feb 2024 01:28:01 GMT